Regional Weather Roundup
Issued by NWS Newport/Morehead, NC

Current Version | Previous Version | Graphics & Text | Print | Product List | Glossary On
Versions: 1 2 3 4 5 6 7 8 9 10 11 12 13 14 15 16 17 18 19 20 21 22 23 24 25 26 27 28 29 30 31 32 33 34 35 36 37 38 39 40 41 42 43 44 45 46 47 48 49 50
000 ASUS42 KMHX 220410 RWRMHX WEATHER ROUNDUP FOR EASTERN NORTH CAROLINA NATIONAL WEATHER SERVICE NEWPORT/MOREHEAD CITY NC 1200 AM EDT WED OCT 22 2014 NOTE: "FAIR" INDICATES FEW OR NO CLOUDS BELOW 12,000 FEET WITH NO SIGNIFICANT WEATHER AND/OR OBSTRUCTIONS TO VISIBILITY NCZ015>017-031-032-045>047-102-103-220500- NORTH COAST CITY SKY/WX TMP DP RH WIND PRES REMARKS EDENTON CLOUDY 57 54 89 NW5 29.87F ELIZABETH CITY RAIN 60 52 74 W10 29.86S KITTY HAWK MOCLDY 63 62 94 CALM 29.81S MANTEO PTCLDY 64 61 90 W3 29.82F $$ NCZ045>047-081-094-103-104-220500- CENTRAL COAST CITY SKY/WX TMP DP RH WIND PRES REMARKS FRISCO CLEAR 67 62 84 W7 29.83F SWANQUARTER N/A 64 N/A N/A NW12G23 29.82R $$ NCZ095-097-098-100-101-220500- SOUTHERN COAST CITY SKY/WX TMP DP RH WIND PRES REMARKS BEAUFORT CLEAR 67 60 78 W10 29.84F CEDAR ISLAND N/A 64 N/A N/A SW3 29.88S JACKSONVILLE MOCLDY 62 55 77 NW16 29.86S PINEY ISLAND CLEAR 64 58 80 SW7 29.83F WILMINGTON CLEAR 62 58 86 W6 29.87F $$ NCZ011>013-027>030-043-044-078>080-089-090>093-098-220500- COASTAL PLAIN CITY SKY/WX TMP DP RH WIND PRES REMARKS AHOSKIE MOCLDY 57 47 71 CALM 29.87F CLINTON CLOUDY 61 47 60 N5 29.91S ELIZABETHTOWN PTCLDY 62 50 64 N5 29.91S GOLDSBORO MOCLDY 62 50 65 NW12 29.88S GREENVILLE PTCLDY 61 50 67 CALM 29.90F HAVELOCK CLEAR 62 57 83 W8 29.85F KENANSVILLE PTCLDY 60 49 68 N6 29.90F KINSTON PTCLDY 62 48 62 NW6 29.90R NEW BERN MOCLDY 64 51 62 N12 29.87S RICHLANDS PTCLDY 61 50 67 NW5 29.89R ROCKY MOUNT CLOUDY 60 42 51 NW10 29.90F WASHINGTON MOCLDY 58 53 83 CALM 29.88F WHITEVILLE PTCLDY 62 50 64 CALM 29.90S $$ AMZ130-135-150-152-154-156-158-170-250-252-270-ANZ085-086-088-633-658-670-220500- MARINE OBSERVATIONS STATION/POSITION TIME TEMP WIND PRES WAVE SWELL AIR SEA DIR/SP/G HT/PER HT/PER (UTC) (F) (DEG/KT/KT) (MB) (FT/S) (FT/S) CHESAPEAKE LIGHT 0300 68 270/ 7/ 8 1010.5 64 E VA BEACH 0400 70 69 270/ 8/ 10 1009.4 4/ 6 3/ 6 DUCK 0400 66 69 280/ 8/ 8 1009.4 2 E DUCK 0300 N/A 2/12 2/12 10 NE DUCK 0400 71 N/A 2/11 OREGON INLET 0400 66 69 260/ 5/ 7 1009.6 13E OREGON INLT 0400 74 N/A 3/ 9 HATTERAS CG 0400 69 72 260/ 10/ 13 1010.3 DIAMOND BUOY 0400 72 260/ 14/ 17 1010.0 4/ 6 2/10 17 S OCRACOKE 0300 VRB 12/ 16 1010.7 CAPE LOOKOUT 0300 70 260/ 11/ 14 1010.8 BEAUFORT LAB 0400 68 71 260/ 4/ 9 1009.9 30 SE NEW RIVER 0400 73 76 260/ 16/ 17 1010.4 3/ 4 2/ 8 5 SE WRIGHTSVLE 0400 68 73 270/ 12/ 12 N/A 225 S CAPE HAT 0345 77 80 260/ 14/ 19 1012.7 3/10 2/10 41 SE CHARLESTON 0400 76 79 250/ 16/ 17 1012.5 3/ 4 2/ 9 $$

USA.gov is the U.S. government's official web portal to all federal, state and local government web resources and services.